Date,TemperatureHighF,TemperatureAvgF,TemperatureLowF,DewpointHighF,DewpointAvgF,DewpointLowF,HumidityHigh,HumidityAvg,HumidityLow,PressureMaxIn,PressureMinIn,WindSpeedMaxMPH,WindSpeedAvgMPH,GustSpeedMaxMPH,PrecipitationSumIn
2012-6-19,76.3,68.5,60.8,31.0,18.2,0.0,20,15,8,29.81,29.74,21,10,29,0.00
2012-6-20,86.5,71.3,52.6,47.0,18.7,-99.9,29,17,1,29.77,29.71,17,6,22,0.00
2012-6-21,80.4,65.4,45.1,43.0,28.9,7.0,43,26,11,29.85,29.76,16,5,20,0.00
2012-6-22,72.2,63.2,56.2,36.0,23.4,11.0,38,22,15,29.83,29.71,21,10,32,0.00
2012-6-23,80.7,65.5,56.5,42.0,24.5,9.0,30,21,13,29.79,29.70,22,7,25,0.00
2012-6-24,83.3,68.5,45.2,43.0,13.1,-26.0,29,13,2,29.89,29.78,14,4,17,0.00
2012-6-25,82.9,68.1,58.1,38.0,23.0,-19.0,30,20,3,29.87,29.79,12,5,17,0.00
2012-6-26,85.1,69.1,56.4,34.0,15.4,-1.0,20,13,8,29.82,29.71,12,5,18,0.00
2012-6-27,86.2,71.5,52.9,49.0,23.7,-2.0,31,18,7,29.86,29.73,11,3,17,0.00
2012-6-28,88.4,71.2,52.0,47.0,34.3,16.0,37,26,15,29.94,29.84,10,3,16,0.00
2012-6-29,84.0,72.4,63.5,36.0,18.0,-26.0,30,14,2,29.92,29.82,16,7,23,0.00
2012-6-30,80.3,69.5,62.3,35.0,14.8,-26.0,24,14,2,29.85,29.78,14,7,19,0.00
2012-7-1,79.7,67.6,56.0,43.0,26.6,13.0,33,22,15,29.80,29.71,12,6,17,0.00
2012-7-2,86.6,69.1,47.1,54.0,36.3,17.0,59,32,12,29.80,29.71,8,3,16,0.00
2012-7-3,81.8,65.6,45.9,60.0,45.0,22.0,76,49,33,29.82,29.76,8,3,14,0.00
2012-7-4,74.8,66.2,56.0,61.0,52.5,36.0,77,62,43,29.83,29.75,11,3,15,0.00
2012-7-5,79.8,66.0,50.1,57.0,47.9,37.0,86,55,29,29.90,29.82,9,3,14,0.00
2012-7-6,84.1,67.1,48.2,49.0,35.1,21.0,87,40,10,29.97,29.89,10,4,24,0.00
2012-7-7,82.8,71.2,61.3,41.0,34.1,25.0,34,26,18,29.96,29.87,16,5,20,0.00
2012-7-8,87.8,73.1,63.7,44.0,36.0,26.0,41,26,18,29.94,29.86,13,5,20,0.00
2012-7-9,93.8,76.0,56.9,47.0,41.4,37.0,56,32,16,29.91,29.81,12,4,15,0.00
2012-7-10,92.7,79.3,66.9,47.0,42.6,39.0,38,28,17,29.83,29.71,14,4,18,0.00
2012-7-11,91.7,79.0,64.3,55.0,44.9,36.0,56,31,17,29.77,29.67,9,3,15,0.00
2012-7-12,71.3,66.3,56.0,60.0,54.5,43.0,89,67,39,29.84,29.70,11,4,21,0.04
2012-7-13,78.2,62.8,51.0,62.0,54.2,43.0,94,76,45,29.95,29.83,11,3,15,0.22
2012-7-14,79.0,66.4,52.6,66.0,58.3,48.0,97,77,52,29.92,29.83,11,2,14,0.01
2012-7-15,83.3,66.9,49.3,58.0,39.3,4.0,93,46,10,29.90,29.80,11,4,15,0.00
2012-7-16,76.6,62.0,44.5,39.0,22.5,5.0,54,23,10,29.90,29.82,18,4,21,0.00
2012-7-17,76.3,62.2,51.8,41.0,29.7,4.0,46,30,13,29.94,29.83,14,6,22,0.00
2012-7-18,83.6,68.5,53.6,46.0,33.6,16.0,50,30,11,29.97,29.86,11,5,18,0.00
2012-7-19,88.5,67.7,50.4,51.0,44.2,35.0,74,46,24,29.96,29.89,12,3,15,0.00
2012-7-20,88.4,69.4,52.8,55.0,48.6,44.0,81,51,28,29.95,29.89,11,3,16,0.00
2012-7-21,87.4,73.1,55.8,57.0,52.8,47.0,80,52,33,29.93,29.81,9,3,13,0.00
2012-7-22,85.1,71.8,59.2,62.0,56.7,52.0,84,61,42,29.87,29.80,8,3,15,0.00
2012-7-23,85.8,71.6,58.4,61.0,53.9,29.0,92,57,24,29.89,29.81,10,3,13,0.00
2012-7-24,84.6,73.3,65.6,42.0,22.6,1.0,39,17,7,29.89,29.80,11,5,17,0.00
2012-7-25,87.0,72.3,62.6,42.0,32.6,11.0,38,24,12,29.89,29.81,12,5,17,0.00
2012-7-26,86.1,72.0,59.3,39.0,29.1,14.0,42,22,11,29.89,29.82,11,5,21,0.00
2012-7-27,85.3,72.2,63.1,33.0,12.2,-99.9,28,15,1,29.90,29.82,13,5,18,0.00
2012-7-28,89.0,73.7,53.2,30.0,6.3,-23.0,15,8,2,29.90,29.82,10,4,14,0.00
2012-7-29,88.4,69.6,52.2,58.0,43.8,8.0,70,42,14,29.92,29.83,9,4,14,0.00
2012-7-30,81.2,65.9,59.7,66.0,57.9,49.0,97,77,53,29.91,29.83,10,3,14,0.32
2012-7-31,78.7,65.3,58.4,63.0,52.6,17.0,97,68,16,30.01,29.88,9,2,13,0.05
2012-8-1,84.1,69.7,54.7,56.0,47.6,21.0,72,48,19,30.01,29.88,16,3,27,0.00
2012-8-2,83.3,70.1,55.7,59.0,53.2,49.0,85,58,33,29.91,29.81,7,2,11,0.00
2012-8-3,87.8,70.6,54.4,55.0,50.9,46.0,81,53,25,29.83,29.73,22,3,41,0.00
2012-8-4,91.8,71.3,55.1,56.0,48.1,30.0,83,48,23,29.88,29.77,12,4,18,0.00
2012-8-5,85.7,69.6,54.1,55.0,46.3,31.0,78,46,27,29.98,29.86,12,4,14,0.00
2012-8-6,87.8,73.0,57.0,57.0,52.8,50.0,87,53,28,29.98,29.89,10,4,15,0.00
2012-8-7,89.9,74.4,59.6,57.0,53.0,49.0,74,51,27,29.93,29.82,10,3,15,0.00
2012-8-8,92.3,76.0,59.5,57.0,52.8,48.0,75,48,25,29.88,29.81,7,3,13,0.00
2012-8-9,90.8,78.2,62.9,63.0,54.9,46.0,69,47,30,29.86,29.73,8,3,15,0.00
2012-8-10,91.3,75.7,59.7,61.0,54.1,48.0,74,50,28,29.78,29.66,10,3,15,0.00
2012-8-11,90.8,74.5,61.2,60.0,54.9,49.0,71,52,33,29.79,29.70,11,4,16,0.00
2012-8-12,93.8,75.6,60.2,58.0,54.1,46.0,81,51,28,29.80,29.74,11,4,17,0.00
2012-8-13,91.2,71.7,60.6,70.0,53.0,46.0,97,55,27,29.82,29.75,12,3,21,0.04
2012-8-14,93.1,74.1,54.8,52.0,44.7,36.0,70,39,16,29.85,29.72,13,4,17,0.01
2012-8-15,89.7,72.7,56.5,59.0,48.4,34.0,71,44,23,29.80,29.72,8,3,15,0.00
2012-8-16,80.2,67.9,59.9,65.0,58.2,52.0,93,72,54,29.91,29.78,15,4,19,0.11
2012-8-17,76.2,67.2,61.3,65.0,62.1,57.0,96,84,64,29.92,29.84,11,4,15,0.16
2012-8-18,81.8,69.4,56.8,65.0,60.8,55.0,97,76,54,29.90,29.78,7,3,11,0.01
2012-8-19,84.4,71.1,57.4,64.0,60.0,56.0,97,71,47,29.83,29.74,10,3,14,0.00
2012-8-20,88.6,71.1,57.5,64.0,58.3,54.0,93,67,39,29.84,29.76,13,3,16,0.00
2012-8-21,84.8,69.9,59.0,64.0,59.0,56.0,93,71,47,29.81,29.75,9,3,13,0.00
2012-8-22,81.1,69.5,60.6,63.0,59.6,55.0,89,72,51,29.82,29.75,10,2,12,0.00
2012-8-23,79.6,65.4,54.5,65.0,59.4,53.0,98,82,57,29.86,29.79,7,2,12,0.01
2012-8-24,82.3,65.5,48.3,65.0,55.7,47.0,98,74,43,29.88,29.78,11,2,12,0.01
2012-8-25,87.3,68.3,53.7,65.0,47.6,13.0,98,55,18,29.83,29.74,10,3,16,0.01
2012-8-26,87.2,68.9,50.9,40.0,23.5,0.0,60,21,7,29.91,29.79,11,3,15,0.00
2012-8-27,88.5,70.3,52.3,47.0,42.8,35.0,66,41,21,29.95,29.87,9,3,22,0.00
2012-8-28,87.4,70.4,55.0,51.0,42.7,34.0,62,39,24,29.94,29.84,10,3,11,0.00
2012-8-29,85.3,72.9,59.2,66.0,56.8,48.0,95,59,36,29.88,29.71,11,4,13,0.01
2012-8-30,82.7,68.1,54.7,65.0,59.7,53.0,96,76,47,29.81,29.70,10,4,14,0.02
2012-8-31,79.6,65.9,53.8,62.0,54.6,39.0,98,70,41,29.90,29.80,9,3,14,0.01
2012-9-1,82.0,72.9,64.7,40.0,35.4,32.0,32,26,20,29.93,29.86,13,6,22,0.01
2012-9-2,89.0,73.3,65.9,46.0,37.7,30.0,47,29,15,29.90,29.81,13,5,16,0.00
2012-9-3,88.3,72.2,57.5,55.0,49.2,45.0,71,47,25,29.93,29.84,10,2,15,0.00
2012-9-4,84.9,68.4,56.4,62.0,53.7,43.0,83,62,32,29.95,29.89,7,2,13,0.00
2012-9-5,87.8,70.1,57.9,54.0,47.5,39.0,69,48,19,29.95,29.84,8,3,25,0.00
2012-9-6,84.1,69.1,57.1,55.0,51.1,46.0,72,55,34,29.91,29.84,10,3,14,0.00
2012-9-7,83.7,68.8,56.1,56.0,51.5,47.0,80,56,37,29.95,29.89,8,3,11,0.00
2012-9-8,82.7,70.2,56.5,61.0,55.1,50.0,82,61,38,29.93,29.84,11,4,14,0.00
2012-9-9,76.4,67.6,58.0,63.0,60.0,55.0,96,78,56,29.87,29.78,15,6,19,0.22
2012-9-10,68.6,61.4,56.9,62.0,58.3,54.0,97,90,78,29.89,29.80,8,3,12,0.66
2012-9-11,70.4,60.2,52.8,65.0,58.2,52.0,99,93,79,29.97,29.85,6,2,8,0.01
2012-9-12,74.3,63.2,48.3,64.0,57.3,48.0,99,82,58,30.01,29.95,10,3,18,0.01
2012-9-13,78.8,70.7,63.5,49.0,44.4,33.0,57,40,27,30.02,29.93,18,7,26,0.00
2012-9-14,77.5,69.9,63.3,51.0,40.4,32.0,57,35,25,30.00,29.95,16,7,25,0.00
2012-9-15,76.6,67.3,51.0,44.0,38.0,31.0,58,35,25,30.04,29.96,15,6,23,0.00
2012-9-16,79.6,62.9,45.3,47.0,39.2,34.0,74,45,24,30.08,29.98,10,4,16,0.00
2012-9-17,82.3,66.1,50.8,48.0,36.9,32.0,66,36,19,30.02,29.90,11,4,16,0.00
2012-9-18,81.5,63.2,47.8,41.0,37.9,35.0,68,44,21,30.04,29.96,10,4,14,0.00
2012-9-19,82.1,65.5,48.5,45.0,41.3,36.0,69,45,24,30.02,29.95,11,4,15,0.00
2012-9-20,84.9,66.2,51.1,47.0,41.0,36.0,74,44,21,30.00,29.91,9,3,17,0.00
2012-9-21,86.8,68.2,56.0,44.0,39.2,36.0,50,36,18,29.96,29.86,7,2,18,0.00
2012-9-22,85.4,68.4,56.9,47.0,38.6,33.0,52,35,19,29.93,29.87,8,2,14,0.00
2012-9-23,85.6,69.2,57.2,42.0,35.4,32.0,43,30,17,30.00,29.91,16,4,19,0.00
2012-9-24,77.4,66.4,58.8,46.0,40.0,34.0,60,39,29,29.94,29.83,19,7,23,0.00
2012-9-25,72.0,61.3,44.0,44.0,39.6,29.0,66,46,30,29.86,29.79,20,8,28,0.00
2012-9-26,76.6,60.6,40.6,38.0,33.8,17.0,67,39,23,29.93,29.85,12,4,17,0.00
2012-9-27,76.8,60.9,47.6,48.0,41.9,34.0,77,52,30,29.96,29.89,8,3,15,0.00
2012-9-28,77.0,60.0,46.5,49.0,43.2,36.0,81,57,32,29.98,29.90,11,3,13,0.00
2012-9-29,77.6,61.3,48.1,48.0,42.2,34.0,77,53,30,30.05,29.96,11,3,13,0.00
2012-9-30,84.6,65.6,47.5,43.0,35.2,29.0,69,38,15,30.08,30.00,9,3,13,0.00
2012-10-1,81.6,64.0,50.7,31.0,28.5,25.0,43,28,14,30.00,29.90,9,4,16,0.00
2012-10-2,87.9,68.6,50.2,37.0,29.3,25.0,40,26,12,29.97,29.88,13,4,17,0.00
2012-10-3,78.2,67.2,59.0,44.0,33.2,28.0,58,30,18,29.95,29.86,18,9,29,0.00
2012-10-4,74.1,62.5,55.9,35.0,31.8,24.0,43,32,22,30.05,29.94,20,8,25,0.00
2012-10-5,77.7,64.0,50.8,32.0,18.2,4.0,35,19,7,30.01,29.90,14,6,20,0.00
2012-10-6,73.2,61.0,50.1,44.0,33.0,12.0,67,37,16,29.93,29.85,14,6,21,0.00
2012-10-7,78.4,61.8,42.1,52.0,42.1,31.0,86,53,24,29.90,29.82,11,4,22,0.00
2012-10-8,76.5,59.3,42.3,41.0,20.4,0.0,76,27,12,29.98,29.90,8,4,15,0.00
2012-10-9,76.6,60.2,46.0,41.0,15.0,-2.0,48,18,10,29.95,29.88,9,4,15,0.00
2012-10-10,67.8,53.5,42.0,44.0,24.3,4.0,91,39,13,29.91,29.83,10,3,15,0.00
2012-10-11,48.6,41.0,36.9,41.0,38.4,36.0,97,91,73,30.00,29.83,15,7,24,0.09
2012-10-12,47.2,41.2,33.9,43.0,39.7,32.0,98,94,85,30.25,29.99,13,6,25,0.12
2012-10-13,66.4,53.5,31.8,40.0,35.2,28.0,96,54,35,30.31,30.16,18,8,25,0.01
2012-10-14,68.3,61.4,55.4,40.0,37.2,31.0,50,41,34,30.16,29.99,19,9,28,0.00
2012-10-15,77.3,62.9,44.6,38.0,33.7,25.0,52,35,21,30.00,29.87,12,5,15,0.00
2012-10-16,78.8,61.8,44.2,37.0,31.7,26.0,56,35,16,29.92,29.82,9,4,13,0.00
2012-10-17,74.3,64.7,48.1,44.0,31.9,25.0,56,31,17,29.92,29.80,14,5,20,0.00
2012-10-18,73.1,62.1,55.9,57.0,49.3,39.0,95,65,41,29.99,29.91,12,4,15,0.00
2012-10-19,78.0,58.1,41.0,49.0,33.0,21.0,81,44,14,30.03,29.89,8,3,13,0.00
2012-10-20,70.4,58.2,49.5,51.0,42.5,26.0,89,58,35,29.91,29.76,13,4,16,0.00
2012-10-21,59.6,49.9,38.7,48.0,40.6,8.0,97,75,16,29.92,29.75,10,6,18,0.00
2012-10-22,64.2,54.9,47.0,35.0,-0.8,-43.0,39,14,1,29.98,29.89,16,6,22,0.00
2012-10-23,58.0,47.9,41.5,43.0,26.6,-17.0,94,54,6,29.97,29.83,16,7,25,0.00
2012-10-24,66.3,50.8,38.3,31.0,9.6,-46.0,72,27,1,30.08,29.91,16,8,27,0.00
2012-10-25,70.4,54.2,40.4,25.0,10.9,-9.0,34,19,9,30.09,29.98,16,5,18,0.00
2012-10-26,60.2,50.9,44.5,22.0,13.5,-10.0,39,24,8,30.10,30.04,24,11,27,0.00
2012-10-27,70.3,57.3,47.5,19.0,7.4,-8.0,22,14,9,30.07,29.96,17,8,20,0.00
2012-10-28,73.2,58.1,40.2,15.0,11.2,7.0,30,17,9,30.07,29.96,11,5,16,0.00
2012-10-29,75.0,54.2,39.1,23.0,16.3,10.0,37,25,12,30.19,30.07,9,3,12,0.00
2012-10-30,75.9,52.7,38.8,25.0,18.7,14.0,44,29,13,30.16,30.06,8,3,14,0.00
2012-10-31,75.7,52.0,35.9,31.0,17.9,6.0,50,30,7,30.11,30.03,9,4,17,0.00
2012-11-1,69.9,52.5,35.5,32.0,17.4,8.0,43,26,14,30.07,29.96,12,4,15,0.00
2012-11-2,66.6,49.2,35.6,23.0,14.0,7.0,55,27,11,30.07,29.95,9,4,12,0.00
2012-11-3,64.5,52.0,36.3,37.0,31.9,22.0,85,50,28,30.14,30.07,16,5,18,0.00
2012-11-4,67.6,59.1,51.5,30.0,24.7,20.0,39,28,18,30.16,30.09,22,8,33,0.00
2012-11-5,70.5,60.2,46.5,26.0,23.0,20.0,42,25,16,30.14,30.07,18,5,23,0.00
2012-11-6,75.2,56.1,41.3,29.0,25.6,22.0,58,35,14,30.17,30.06,8,3,12,0.00
2012-11-7,70.3,56.4,44.9,30.0,24.5,18.0,48,31,14,30.11,29.96,10,4,16,0.00
2012-11-8,62.7,50.2,42.0,49.0,40.2,24.0,98,73,35,29.95,29.80,21,8,31,0.09
2012-11-9,43.0,35.1,30.9,43.0,34.6,30.0,98,98,96,29.97,29.77,27,14,34,0.20
2012-11-10,34.9,30.9,27.0,33.0,28.9,25.0,98,92,84,30.26,29.97,21,9,35,0.09
2012-11-11,41.3,34.7,24.5,25.0,16.1,0.0,90,49,22,30.46,30.27,18,9,24,0.00
2012-11-12,60.0,44.8,33.3,9.0,-7.6,-33.0,32,13,3,30.41,30.26,18,8,23,0.00
2012-11-13,62.9,50.2,39.3,19.0,0.1,-28.0,32,15,4,30.27,30.14,14,6,22,0.00
2012-11-14,66.9,49.0,36.9,21.0,15.7,12.0,45,29,13,30.17,30.08,10,3,14,0.00
2012-11-15,56.4,47.7,38.4,40.0,22.7,7.0,83,41,14,30.19,30.11,7,2,17,0.00
2012-11-16,55.8,49.0,45.6,48.0,42.0,29.0,97,78,52,30.14,30.06,15,4,18,0.00
2012-11-17,51.8,45.3,40.5,45.0,42.6,37.0,97,90,74,30.12,30.02,19,8,26,0.00
2012-11-18,55.8,44.7,35.9,43.0,36.0,25.0,97,74,43,30.21,30.09,13,4,17,0.01
2012-11-19,65.0,45.8,32.4,42.0,30.9,20.0,82,59,32,30.29,30.21,8,3,13,0.00
2012-11-20,66.8,44.5,29.8,38.0,25.4,16.0,84,53,17,30.27,30.13,6,3,13,0.00
2012-11-21,68.1,49.6,28.8,34.0,19.1,3.0,55,31,16,30.19,30.10,9,3,14,0.00
2012-11-22,65.8,51.8,34.9,34.0,28.0,20.0,64,42,23,30.21,30.06,13,4,17,0.00
2012-11-23,65.0,53.5,41.2,33.0,24.8,12.0,53,35,18,30.23,30.16,15,6,18,0.00
2012-11-24,70.3,53.8,40.6,31.0,27.9,23.0,60,40,19,30.19,30.03,7,3,10,0.00
2012-11-25,69.0,50.4,36.8,33.0,29.4,27.0,70,48,24,30.03,29.93,12,3,12,0.00
2012-11-26,66.1,48.9,37.8,32.0,28.3,25.0,68,48,26,30.18,30.01,10,3,13,0.00
2012-11-27,63.6,45.1,33.6,31.0,27.4,25.0,76,54,27,30.26,30.16,9,3,14,0.00
2012-11-28,60.1,46.2,33.7,40.0,30.5,25.0,78,57,32,30.28,30.19,10,3,16,0.00
2012-11-29,55.6,48.6,45.8,50.0,45.7,38.0,97,90,69,30.25,30.15,17,8,26,0.01
2012-11-30,50.0,47.1,40.7,48.0,46.1,36.0,98,96,82,30.17,30.11,17,7,26,0.07
2012-12-1,60.5,50.1,42.5,46.0,40.0,28.0,98,70,51,30.20,30.08,11,6,19,0.01
2012-12-2,57.8,47.8,39.8,46.0,41.1,33.0,95,78,57,30.12,30.05,18,7,27,0.00
2012-12-3,62.8,51.0,45.6,47.0,33.4,5.0,93,58,17,30.21,30.08,24,8,27,0.00
2012-12-4,72.8,53.9,41.5,38.0,25.6,8.0,61,36,16,30.27,30.17,9,3,12,0.00
2012-12-5,71.8,56.0,42.3,39.0,17.6,-14.0,60,27,3,30.21,29.98,18,5,18,0.00
2012-12-6,61.3,51.6,37.8,43.0,38.6,34.0,93,63,37,29.98,29.82,12,4,14,0.00
2012-12-7,59.3,47.1,33.6,38.0,32.7,20.0,91,62,22,30.02,29.92,11,4,16,0.00
2012-12-8,59.1,40.9,28.6,32.0,22.5,11.0,91,53,20,30.10,30.01,9,4,16,0.00
2012-12-9,64.0,44.9,28.5,27.0,18.4,11.0,60,38,13,30.25,30.09,14,5,24,0.00
2012-12-10,59.1,47.3,41.2,27.0,22.2,16.0,51,38,27,30.22,30.12,16,7,24,0.00
2012-12-11,62.0,49.5,41.8,25.0,19.2,15.0,46,31,20,30.11,29.98,16,6,21,0.00
2012-12-12,55.0,43.6,36.5,37.0,23.8,7.0,97,52,24,29.98,29.85,14,6,22,0.00
2012-12-13,37.1,34.2,28.9,37.0,33.8,28.0,98,98,97,29.85,29.74,17,6,25,0.60
2012-12-14,29.3,28.6,28.1,29.0,28.0,27.0,98,97,97,29.84,29.75,17,9,27,0.00
2012-12-15,34.8,32.8,29.1,34.0,25.7,17.0,99,77,51,30.13,30.05,19,8,26,0.19
2012-12-16,40.6,39.4,34.5,40.0,39.0,34.0,99,98,97,30.25,30.19,19,8,26,0.36
2012-12-17,52.8,44.7,39.0,45.0,41.9,39.0,99,90,73,30.22,30.04,13,6,16,0.02
2012-12-18,40.5,38.4,33.6,40.0,38.0,33.0,99,99,98,29.85,29.79,27,11,31,0.41
2012-12-19,35.4,31.1,27.5,19.0,5.2,-15.0,62,35,13,30.48,30.27,16,10,24,0.00
2012-12-20,58.4,39.6,26.6,14.0,-0.6,-20.0,49,22,8,30.45,30.20,12,4,17,0.00
2012-12-21,56.7,36.9,24.6,14.0,6.9,-1.0,48,32,10,30.26,30.18,11,3,13,0.00
2012-12-22,53.3,40.5,29.2,33.0,10.9,-3.0,87,34,13,30.21,30.14,9,4,16,0.00
2012-12-23,48.1,38.2,33.4,37.0,32.7,27.0,95,82,44,30.21,30.12,18,8,27,0.00
2012-12-24,42.9,38.0,32.9,42.0,32.1,12.0,98,82,31,30.17,30.09,19,10,38,0.18
2012-12-25,50.2,39.0,32.0,32.0,21.2,13.0,84,51,30,30.21,30.04,11,4,15,0.00
2012-12-26,37.5,33.7,29.7,37.0,29.6,15.0,97,86,40,30.03,29.92,26,11,34,0.05
2012-12-27,36.2,30.7,24.6,33.0,28.5,23.0,95,91,84,30.20,30.05,15,4,20,0.11
2012-12-28,38.6,30.2,19.9,22.0,19.8,17.0,93,67,48,30.29,30.21,11,5,15,0.00
2012-12-29,35.2,29.4,20.4,33.0,28.0,19.0,98,94,85,30.24,30.08,12,3,13,0.00
2012-12-30,28.2,25.4,23.7,27.0,23.8,22.0,96,94,91,30.07,30.02,6,3,11,0.01
2012-12-31,41.6,29.1,18.2,34.0,24.5,17.0,94,84,64,30.39,30.30,6,2,9,0.21
2013-1-1,37.1,27.7,18.1,25.0,17.2,9.0,93,67,43,30.39,30.28,18,8,31,0.01